Prescott, AZ

4:05 AM MST on December 06, 2019 (GMT -0700)
Love

Weather History for KPRC - October, 2019

Change the Weather History Date:

Sunday, October 13, 2019

  Actual Average Record
Temperature  
Mean Temperature 56 °F 58 °F  
Max Temperature 74 °F 73 °F 88 °F (1950)
Min Temperature 37 °F 42 °F 26 °F (1997)
Degree Days  
Heating Degree Days 10    
Month to date heating degree days 85  
Since 1 July heating degree days 112  
Cooling Degree Days 0    
Month to date cooling degree days 0  
Year to date cooling degree days 1130  
Growing Degree Days 6 (Base 50)    
Moisture  
Dew Point 24 °F    
Average Humidity 33    
Maximum Humidity 64    
Minimum Humidity 12    
Precipitation  
Precipitation 0.00 in 0.03 in 0.32 in (1987)
Month to date precipitation 0.00 0.43  
Year to date precipitation 10.29 11.60  
Sea Level Pressure  
Sea Level Pressure 29.90 in    
Wind  
Wind Speed 5 mph ()    
Max Wind Speed 18 mph    
Max Gust Speed 24 mph    
Visibility 10.0 miles    
Events      
T = Trace of Precipitation, MM = Missing Value Source: Averaged Metar Reports

Daily Weather History Graph

Daily Weather History Graph

Search for Another Location

Airport or City:

Astronomy

Oct. 13, 2019 Rise Set
Actual Time 6:33 AM MST 5:57 PM MST
Civil Twilight 6:08 AM MST 6:23 PM MST
Nautical Twilight 5:38 AM MST 6:52 PM MST
Astronomical Twilight 5:09 AM MST 7:21 PM MST
Moon 6:19 PM MST (10/13) 6:14 AM MST (10/13)
Length of Visible Light 12h 14m
Length of Day
11h 24m
Full, 100% of the Moon is Illuminated
Oct 13
Full
Oct 13
Full
Oct 21
Last Quarter
Oct 27
New
Nov 4
First Quarter

Hourly Weather History & Observations

Time (MST) Temp. Windchill Dew Point Humidity Pressure Visibility Wind Dir Wind Speed Gust Speed Precip Events Conditions
12:53 AM 45.0 °F 42.6 °F 28.0 °F 52% 29.89 in 10.0 mi SSW 4.6 mph - N/A   Clear
1:53 AM 43.0 °F 38.8 °F 27.0 °F 53% 29.90 in 10.0 mi South 6.9 mph - N/A   Clear
2:53 AM 42.1 °F 40.2 °F 26.1 °F 53% 29.89 in 10.0 mi Variable 3.5 mph - N/A   Clear
3:53 AM 42.1 °F - 26.1 °F 53% 29.90 in 10.0 mi Calm Calm - N/A   Clear
4:53 AM 41.0 °F 38.0 °F 25.0 °F 53% 29.91 in 10.0 mi SSW 4.6 mph - N/A   Clear
5:53 AM 39.9 °F 37.8 °F 24.1 °F 53% 29.93 in 10.0 mi SSW 3.5 mph - N/A   Clear
6:53 AM 37.9 °F 34.4 °F 26.1 °F 62% 29.95 in 10.0 mi SW 4.6 mph - N/A   Clear
7:53 AM 48.0 °F - 26.1 °F 42% 29.95 in 10.0 mi Calm Calm - N/A   Clear
8:53 AM 55.9 °F - 25.0 °F 30% 29.95 in 10.0 mi Variable 3.5 mph - N/A   Clear
9:53 AM 64.0 °F - 26.1 °F 24% 29.94 in 10.0 mi Variable 4.6 mph - N/A   Clear
10:53 AM 69.1 °F - 25.0 °F 19% 29.92 in 10.0 mi ESE 8.1 mph - N/A   Clear
11:53 AM 72.0 °F - 23.0 °F 16% 29.90 in 10.0 mi Variable 4.6 mph - N/A   Clear
12:53 PM 73.9 °F - 19.9 °F 13% 29.87 in 10.0 mi SSW 15.0 mph 24.2 mph N/A   Clear
1:53 PM 73.0 °F - 21.9 °F 15% 29.88 in 10.0 mi SW 15.0 mph 21.9 mph N/A   Clear
2:53 PM 73.0 °F - 18.0 °F 12% 29.86 in 10.0 mi SW 13.8 mph 23.0 mph N/A   Clear
3:53 PM 72.0 °F - 19.0 °F 13% 29.87 in 10.0 mi South 13.8 mph 20.7 mph N/A   Clear
4:53 PM 70.0 °F - 19.9 °F 15% 29.87 in 10.0 mi SSW 10.4 mph - N/A   Clear
5:53 PM 66.9 °F - 21.0 °F 17% 29.88 in 10.0 mi SSW 8.1 mph - N/A   Clear
6:53 PM 61.0 °F - 23.0 °F 23% 29.91 in 10.0 mi SSW 5.8 mph - N/A   Clear
7:53 PM 59.0 °F - 25.0 °F 27% 29.90 in 10.0 mi South 6.9 mph - N/A   Clear
8:53 PM 54.0 °F - 27.0 °F 35% 29.90 in 10.0 mi South 8.1 mph - N/A   Clear
9:53 PM 52.0 °F - 27.0 °F 38% 29.88 in 10.0 mi SSW 6.9 mph - N/A   Clear
10:53 PM 51.1 °F - 25.0 °F 36% 29.87 in 10.0 mi SSW 6.9 mph - N/A   Clear
11:53 PM 48.0 °F - 27.0 °F 44% 29.87 in 10.0 mi SSW 8.1 mph - N/A   Clear